EW2255 Weather Reports


Display with metric or nautical units.
time (UTC)temp
F
wind
direction
speed
MPH
gust
MPH
rain 1hr
in
rain 24hr
in
rain mn
in
humidity
%
barometer
mb
20170723064644 57 94 0.0 0.0 0.00 0.00 0.00 95 1007.2
20170723064304 58 94 0.0 0.0 0.00 0.00 0.00 95 1007.7
20170723063810 58 94 0.0 0.0 0.00 0.00 0.00 95 1007.7
20170723063309 57 94 0.0 2.0 0.00 0.00 0.00 96 1007.9
20170723062959 57 94 0.0 2.0 0.00 0.00 0.00 95 1007.2
20170723062751 57 94 1.0 2.0 0.00 0.00 0.00 96 1007.7
20170723061802 57 94 0.0 3.0 0.00 0.00 0.00 96 1007.9
20170723061410 57 94 0.0 3.0 0.00 0.00 0.00 96 1007.4
20170723061313 57 94 0.0 3.0 0.00 0.00 0.00 96 1007.8
20170723060759 57 94 0.0 0.0 0.00 0.00 0.00 96 1007.9
20170723060304 57 94 0.0 0.0 0.00 0.00 0.00 96 1007.8
20170723055813 57 94 0.0 0.0 0.00 0.00 0.00 95 1007.8
20170723055803 56 94 0.0 0.0 0.00 0.00 0.00 95 1007.3
20170723055254 57 94 0.0 0.0 0.00 0.00 0.00 95 1007.8
20170723054800 57 94 0.0 0.0 0.00 0.00 0.00 95 1007.8
20170723054304 57 94 0.0 0.0 0.00 0.00 0.00 95 1007.9
20170723054210 57 94 0.0 0.0 0.00 0.00 0.00 95 1007.5
20170723053814 57 94 0.0 0.0 0.00 0.00 0.00 95 1008.1
20170723053300 57 94 0.0 0.0 0.00 0.00 0.00 95 1007.9
20170723052804 57 94 0.0 0.0 0.00 0.00 0.00 95 1008.1
20170723052616 57 94 0.0 0.0 0.00 0.00 0.00 95 1007.5
20170723052250 57 94 0.0 0.0 0.00 0.00 0.00 95 1008.0
20170723051802 57 94 0.0 0.0 0.00 0.00 0.00 95 1008.2
20170723051305 57 94 0.0 0.0 0.00 0.00 0.00 95 1008.1
20170723051025 57 94 0.0 0.0 0.00 0.00 0.00 95 1007.8
20170723050753 58 94 0.0 0.0 0.00 0.00 0.00 95 1008.1
20170723050305 58 94 0.0 0.0 0.00 0.00 0.00 95 1008.0
20170723045851 58 94 0.0 0.0 0.00 0.00 0.00 95 1008.0
20170723045345 57 94 0.0 0.0 0.00 0.00 0.00 95 1007.3
20170723045250 58 94 0.0 0.0 0.00 0.00 0.00 95 1007.8
20170723044755 58 94 0.0 0.0 0.00 0.00 0.00 95 1007.9
20170723044257 58 94 0.0 0.0 0.00 0.00 0.00 94 1007.8
20170723043753 58 94 0.0 0.0 0.00 0.00 0.00 94 1007.9
20170723043749 58 94 0.0 0.0 0.00 0.00 0.00 94 1007.3
20170723043305 58 94 0.0 0.0 0.00 0.00 0.00 94 1007.8
20170723042810 58 94 0.0 0.0 0.00 0.00 0.00 94 1007.9
20170723042254 58 94 0.0 0.0 0.00 0.00 0.00 94 1007.9
20170723042054 58 94 0.0 0.0 0.00 0.00 0.00 94 1007.5
20170723041805 58 94 0.0 0.0 0.00 0.00 0.00 94 1008.0
20170723041309 58 94 0.0 0.0 0.00 0.00 0.00 94 1007.9
20170723040754 58 94 0.0 0.0 0.00 0.00 0.00 94 1007.8
20170723040502 58 94 0.0 0.0 0.00 0.00 0.00 94 1007.3
20170723040307 59 94 0.0 0.0 0.00 0.00 0.00 94 1007.8
20170723035806 59 94 0.0 0.0 0.00 0.00 0.00 94 1007.9
20170723035309 59 94 0.0 0.0 0.00 0.00 0.00 94 1007.9
20170723034903 58 94 0.0 0.0 0.00 0.00 0.00 94 1007.4
20170723034800 59 94 0.0 0.0 0.00 0.00 0.00 94 1007.9
20170723034304 59 94 0.0 0.0 0.00 0.00 0.00 93 1007.9
20170723033809 59 94 0.0 0.0 0.00 0.00 0.00 93 1007.8
20170723033315 59 94 0.0 0.0 0.00 0.00 0.00 93 1007.5
20170723033254 59 94 0.0 0.0 0.00 0.00 0.00 93 1008.0
20170723032804 59 94 0.0 0.0 0.00 0.00 0.00 93 1008.1
20170723032308 59 94 0.0 0.0 0.00 0.00 0.00 92 1008.2
20170723031753 60 94 0.0 1.0 0.00 0.00 0.00 92 1008.2
20170723031707 59 94 0.0 1.0 0.00 0.00 0.00 92 1007.7
20170723031304 60 94 0.0 1.0 0.00 0.00 0.00 92 1008.2
20170723030753 60 94 0.0 0.0 0.00 0.00 0.00 92 1008.3
20170723030256 60 94 0.0 0.0 0.00 0.00 0.00 92 1008.3
20170723030023 60 94 0.0 0.0 0.00 0.00 0.00 92 1007.8
20170723025314 61 94 0.0 0.0 0.00 0.00 0.00 92 1008.3
20170723024800 61 94 0.0 1.0 0.00 0.00 0.00 92 1008.4
20170723024426 60 94 0.0 1.0 0.00 0.00 0.00 91 1007.7
20170723024303 61 94 0.0 1.0 0.00 0.00 0.00 91 1008.2
20170723023814 61 94 0.0 0.0 0.00 0.00 0.00 91 1008.1
20170723023300 61 94 0.0 0.0 0.00 0.00 0.00 91 1008.1
20170723022839 60 94 0.0 0.0 0.00 0.00 0.00 91 1007.7
20170723022803 61 94 0.0 0.0 0.00 0.00 0.00 91 1008.2
20170723022253 61 94 0.0 1.0 0.00 0.00 0.00 91 1008.1
20170723021804 61 94 0.0 1.0 0.00 0.00 0.00 92 1008.2
20170723021307 61 94 0.0 0.0 0.00 0.00 0.00 91 1008.0
20170723021131 60 94 0.0 0.0 0.00 0.00 0.00 91 1007.3
20170723020751 61 94 0.0 1.0 0.00 0.00 0.00 91 1007.8
20170723020257 61 94 0.0 5.0 0.00 0.00 0.00 91 1007.7
20170723015806 61 94 2.0 5.0 0.00 0.00 0.00 91 1007.6
20170723015536 60 96 1.0 6.0 0.00 0.00 0.00 91 1007.1
20170723015250 61 88 1.0 6.0 0.00 0.00 0.00 91 1007.7
20170723014754 61 92 1.0 6.0 0.00 0.00 0.00 90 1007.8
20170723014304 61 96 1.0 5.0 0.00 0.00 0.00 90 1007.7
20170723013942 61 94 1.0 5.0 0.00 0.00 0.00 90 1007.3
20170723013258 62 54 1.0 3.0 0.00 0.00 0.00 89 1007.8
20170723012801 62 54 1.0 3.0 0.00 0.00 0.00 89 1007.9
20170723012357 62 11 0.0 2.0 0.00 0.00 0.00 88 1007.4
20170723012257 62 19 0.0 2.0 0.00 0.00 0.00 88 1008.0
20170723011801 63 355 0.0 2.0 0.00 0.00 0.00 88 1007.9
20170723011306 63 333 0.0 0.0 0.00 0.00 0.00 88 1007.8
20170723010804 63 333 0.0 1.0 0.00 0.00 0.00 87 1007.2
20170723010751 63 333 0.0 1.0 0.00 0.00 0.00 87 1007.8
20170723010303 63 333 0.0 1.0 0.00 0.00 0.00 87 1007.8
20170723005806 64 333 0.0 2.0 0.00 0.00 0.00 87 1007.9
20170723005251 64 333 0.0 2.0 0.00 0.00 0.00 86 1007.8
20170723005202 63 333 0.0 2.0 0.00 0.00 0.00 86 1007.2
20170723004802 64 333 0.0 0.0 0.00 0.00 0.00 85 1007.7
20170723004304 64 333 0.0 0.0 0.00 0.00 0.00 85 1007.7
20170723003750 64 333 0.0 2.0 0.00 0.00 0.00 84 1007.7
20170723003607 64 333 0.0 2.0 0.00 0.00 0.00 84 1007.2
20170723003300 65 333 0.0 2.0 0.00 0.00 0.00 83 1007.8
20170723002802 65 333 0.0 0.0 0.00 0.00 0.00 83 1007.8
20170723002306 66 14 0.0 2.0 0.00 0.00 0.00 83 1007.7
20170723002010 65 27 0.0 2.0 0.00 0.00 0.00 83 1007.1
20170723001816 65 26 0.0 2.0 0.00 0.00 0.00 83 1007.7
20170723001259 65 59 0.0 4.0 0.00 0.00 0.00 83 1007.7
20170723000802 65 56 1.0 5.0 0.00 0.00 0.00 83 1007.8
20170723000415 64 63 0.0 5.0 0.00 0.00 0.00 83 1007.3
20170723000314 65 96 1.0 5.0 0.00 0.00 0.00 83 1007.9
20170722235757 65 140 1.0 5.0 0.00 0.00 0.00 84 1007.9
20170722235302 64 109 1.0 5.0 0.00 0.00 0.00 85 1008.0
20170722234821 63 115 1.0 5.0 0.00 0.00 0.00 85 1007.5
20170722234806 64 115 2.0 5.0 0.00 0.00 0.00 85 1008.1
20170722234316 64 81 2.0 5.0 0.00 0.00 0.00 85 1008.2
20170722233801 64 82 2.0 5.0 0.00 0.00 0.00 85 1008.2
20170722233308 64 11 0.0 5.0 0.00 0.00 0.00 85 1008.3
20170722233215 63 355 1.0 5.0 0.00 0.00 0.00 85 1007.7
20170722232816 64 99 3.0 6.0 0.00 0.00 0.00 84 1008.2
20170722232301 64 61 1.0 3.0 0.00 0.00 0.00 85 1008.2
20170722231804 64 59 0.0 3.0 0.00 0.00 0.00 84 1008.2
20170722231525 64 159 1.0 3.0 0.00 0.00 0.00 84 1007.6
20170722231255 64 62 1.0 4.0 0.00 0.00 0.00 84 1008.3
20170722230804 64 88 1.0 8.0 0.00 0.00 0.00 84 1008.3
20170722230255 65 55 3.0 8.0 0.00 0.00 0.00 83 1008.4
20170722225833 65 49 1.0 6.0 0.00 0.00 0.00 82 1007.7
20170722225758 66 49 3.0 6.0 0.00 0.00 0.00 82 1008.3
20170722225302 66 248 2.0 6.0 0.00 0.00 0.00 83 1008.3
20170722224752 66 19 2.0 5.0 0.00 0.00 0.00 83 1008.4
20170722224302 66 355 2.0 5.0 0.00 0.00 0.00 82 1008.3
20170722224136 65 31 0.0 5.0 0.00 0.00 0.00 83 1007.6
20170722223806 66 24 2.0 7.0 0.00 0.00 0.00 83 1008.2
20170722223314 66 54 3.0 7.0 0.00 0.00 0.00 83 1008.2
20170722222753 66 47 3.0 6.0 0.00 0.00 0.00 82 1008.2
20170722222533 66 65 2.0 7.0 0.00 0.00 0.00 82 1007.4
20170722222256 66 294 3.0 6.0 0.00 0.00 0.00 82 1008.0
20170722221806 66 306 2.0 7.0 0.00 0.00 0.00 83 1008.0
20170722221310 66 111 3.0 7.0 0.00 0.00 0.00 82 1008.1
20170722220938 66 70 2.0 8.0 0.00 0.00 0.00 82 1007.4
20170722220841 66 34 3.0 8.0 0.00 0.00 0.00 82 1008.1
20170722220300 66 344 2.0 8.0 0.00 0.00 0.00 82 1008.0
20170722215809 66 182 2.0 7.0 0.00 0.00 0.00 82 1008.1
20170722215255 66 164 2.0 7.0 0.00 0.00 0.00 83 1008.1
20170722215248 65 262 1.0 7.0 0.00 0.00 0.00 83 1007.4
20170722214758 66 49 3.0 7.0 0.00 0.00 0.00 81 1008.2
20170722214303 66 103 3.0 7.0 0.00 0.00 0.00 82 1008.2
20170722213814 66 355 2.0 7.0 0.00 0.00 0.00 83 1008.2
20170722213656 65 44 2.0 7.0 0.00 0.00 0.00 83 1007.5
20170722213313 66 46 3.0 9.0 0.00 0.00 0.00 82 1008.2
20170722212756 66 79 3.0 9.0 0.00 0.00 0.00 82 1008.3
20170722212303 66 166 3.0 10.0 0.00 0.00 0.00 82 1008.2
20170722211901 66 94 1.0 6.0 0.00 0.00 0.00 84 1007.6
20170722211813 66 355 2.0 6.0 0.00 0.00 0.00 84 1008.3
20170722211257 66 25 3.0 8.0 0.00 0.00 0.00 83 1008.3
20170722210807 66 340 3.0 11.0 0.00 0.00 0.00 81 1008.2
20170722210320 67 10 3.0 11.0 0.00 0.00 0.00 83 1008.2
20170722210209 66 338 3.0 11.0 0.00 0.00 0.00 82 1007.5
20170722205804 67 348 4.0 9.0 0.00 0.00 0.00 81 1008.2
20170722205258 67 28 2.0 5.0 0.00 0.00 0.00 82 1008.2
20170722204801 67 93 2.0 6.0 0.00 0.00 0.00 83 1008.1
20170722204518 66 109 1.0 7.0 0.00 0.00 0.00 83 1007.6
20170722204312 67 117 2.0 7.0 0.00 0.00 0.00 83 1008.2
20170722203758 67 14 2.0 7.0 0.00 0.00 0.00 82 1008.1
20170722203303 67 5 2.0 6.0 0.00 0.00 0.00 84 1008.1
20170722202924 66 35 2.0 6.0 0.00 0.00 0.00 84 1007.5
20170722202806 66 70 3.0 6.0 0.00 0.00 0.00 84 1008.1
20170722202257 66 16 2.0 9.0 0.00 0.00 0.00 84 1008.2
20170722201759 66 69 2.0 9.0 0.00 0.00 0.00 85 1008.2
20170722201323 65 74 2.0 5.0 0.00 0.00 0.00 84 1007.6
20170722201306 66 92 3.0 5.0 0.00 0.00 0.00 84 1008.2
20170722200818 66 94 2.0 5.0 0.00 0.00 0.00 85 1008.3
20170722200303 66 37 2.0 8.0 0.00 0.00 0.00 84 1008.3
20170722195807 66 120 2.0 8.0 0.00 0.00 0.00 83 1008.3
20170722195727 65 115 3.0 8.0 0.00 0.00 0.00 83 1007.7
20170722195316 66 120 2.0 8.0 0.00 0.00 0.00 83 1008.2
20170722194759 67 90 3.0 6.0 0.00 0.00 0.00 82 1008.1
20170722194126 67 90 1.0 8.0 0.00 0.00 0.00 83 1007.3
20170722193807 67 98 3.0 8.0 0.00 0.00 0.00 82 1007.9
20170722193318 67 67 2.0 8.0 0.00 0.00 0.00 84 1008.0
20170722192802 67 96 3.0 8.0 0.00 0.00 0.00 83 1008.0
20170722192528 66 101 2.0 8.0 0.00 0.00 0.00 83 1007.3
20170722192305 67 92 3.0 8.0 0.00 0.00 0.00 83 1008.0
20170722191817 67 28 2.0 8.0 0.00 0.00 0.00 82 1008.0
20170722191300 68 101 3.0 6.0 0.00 0.00 0.00 83 1008.2
20170722190931 67 60 1.0 5.0 0.00 0.00 0.00 83 1007.5
20170722190803 67 22 2.0 5.0 0.00 0.00 0.00 83 1008.1
20170722190316 67 59 2.0 7.0 0.00 0.00 0.00 83 1008.2
20170722185759 67 102 4.0 7.0 0.00 0.00 0.00 82 1008.1
20170722185354 67 100 2.0 5.0 0.00 0.00 0.00 83 1007.5
20170722185304 67 11 2.0 5.0 0.00 0.00 0.00 83 1008.2
20170722184809 67 90 2.0 8.0 0.00 0.00 0.00 84 1008.2
20170722184319 67 55 4.0 8.0 0.00 0.00 0.00 84 1008.2
20170722183805 66 111 2.0 8.0 0.00 0.00 0.00 85 1008.3
20170722183740 66 140 1.0 8.0 0.00 0.00 0.00 85 1007.6
20170722183310 66 94 3.0 8.0 0.00 0.00 0.00 84 1008.3
20170722182820 66 77 2.0 10.0 0.00 0.00 0.00 84 1008.3
20170722182306 67 98 3.0 10.0 0.00 0.00 0.00 84 1008.4
20170722182144 66 40 1.0 5.0 0.00 0.00 0.00 84 1007.7
20170722181810 67 82 2.0 5.0 0.00 0.00 0.00 84 1008.4
20170722181322 67 132 3.0 6.0 0.00 0.00 0.00 83 1008.4
20170722180806 68 38 3.0 6.0 0.00 0.00 0.00 82 1008.4
20170722180553 67 53 2.0 6.0 0.00 0.00 0.00 82 1007.7
20170722180311 68 19 3.0 6.0 0.00 0.00 0.00 82 1008.4
20170722175815 69 130 3.0 8.0 0.00 0.00 0.00 84 1008.4
20170722175259 69 103 4.0 8.0 0.00 0.00 0.00 82 1008.4
20170722175010 68 57 2.0 7.0 0.00 0.00 0.00 82 1007.6
20170722174810 69 61 4.0 7.0 0.00 0.00 0.00 82 1008.3
20170722174315 69 82 3.0 7.0 0.00 0.00 0.00 82 1008.1
20170722173800 69 34 3.0 9.0 0.00 0.00 0.00 83 1008.0
20170722173406 69 94 2.0 9.0 0.00 0.00 0.00 84 1007.3
20170722173311 69 103 4.0 9.0 0.00 0.00 0.00 84 1008.0
20170722172814 69 55 3.0 6.0 0.00 0.00 0.00 85 1007.9
20170722172302 69 98 2.0 7.0 0.00 0.00 0.00 87 1008.0
20170722171812 68 360 2.0 10.0 0.00 0.00 0.00 87 1008.1
20170722171807 67 28 1.0 10.0 0.00 0.00 0.00 87 1007.3
20170722170818 68 105 4.0 9.0 0.00 0.00 0.00 87 1008.2
20170722170303 68 9 3.0 6.0 0.00 0.00 0.00 86 1008.2
20170722170204 68 5 2.0 5.0 0.00 0.00 0.00 86 1007.5
20170722165812 68 42 3.0 5.0 0.00 0.00 0.00 85 1008.2
20170722165317 69 15 2.0 5.0 0.00 0.00 0.00 84 1008.3
20170722164804 70 50 2.0 4.0 0.00 0.00 0.00 83 1008.3
20170722164611 69 46 1.0 4.0 0.00 0.00 0.00 83 1007.5
20170722164315 70 48 1.0 4.0 0.00 0.00 0.00 83 1008.2
20170722163819 70 38 1.0 5.0 0.00 0.00 0.00 83 1008.1
20170722163306 70 44 2.0 7.0 0.00 0.00 0.00 83 1008.0
20170722163022 69 78 3.0 7.0 0.00 0.00 0.00 82 1007.3
20170722162816 70 97 3.0 6.0 0.00 0.00 0.00 84 1008.1
20170722162320 69 5 3.0 6.0 0.00 0.00 0.00 83 1008.1
20170722161806 70 346 1.0 5.0 0.00 0.00 0.00 84 1008.2
20170722161427 69 169 2.0 5.0 0.00 0.00 0.00 83 1007.4
20170722161310 69 63 2.0 5.0 0.00 0.00 0.00 84 1008.1
20170722160821 69 121 2.0 6.0 0.00 0.00 0.00 84 1008.2
20170722160307 70 36 2.0 6.0 0.00 0.00 0.00 83 1008.1
20170722155825 69 113 2.0 7.0 0.00 0.00 0.00 82 1007.4
20170722155812 70 80 2.0 7.0 0.00 0.00 0.00 82 1008.1
20170722155322 70 119 3.0 7.0 0.00 0.00 0.00 82 1008.1
20170722154808 71 97 3.0 8.0 0.00 0.00 0.00 81 1008.2
20170722154313 72 42 4.0 8.0 0.00 0.00 0.00 78 1008.3
20170722154224 72 98 3.0 8.0 0.00 0.00 0.00 78 1007.6
20170722153823 73 27 3.0 4.0 0.00 0.00 0.00 77 1008.3
20170722153307 73 41 2.0 4.0 0.00 0.00 0.00 77 1008.4
20170722152810 73 5 2.0 5.0 0.00 0.00 0.00 77 1008.2
20170722152625 72 35 1.0 5.0 0.00 0.00 0.00 77 1007.5
20170722152320 72 9 3.0 5.0 0.00 0.00 0.00 78 1008.1
20170722151802 71 38 2.0 7.0 0.00 0.00 0.00 80 1008.2
20170722151305 71 58 3.0 7.0 0.00 0.00 0.00 81 1008.2
20170722151037 70 104 3.0 7.0 0.00 0.00 0.00 80 1007.6
20170722150808 70 101 4.0 7.0 0.00 0.00 0.00 80 1008.2
20170722150319 70 57 3.0 8.0 0.00 0.00 0.00 81 1008.3
20170722145822 70 65 3.0 8.0 0.00 0.00 0.00 82 1008.3
20170722145436 69 103 0.0 7.0 0.00 0.00 0.00 82 1007.7
20170722145305 69 46 3.0 7.0 0.00 0.00 0.00 82 1008.3
20170722144816 69 5 2.0 5.0 0.00 0.00 0.00 83 1008.5
20170722144320 69 101 3.0 5.0 0.00 0.00 0.00 82 1008.5
20170722143828 69 63 1.0 4.0 0.00 0.00 0.00 84 1008.6
20170722143817 68 63 1.0 4.0 0.00 0.00 0.00 84 1007.9
20170722143312 68 5 1.0 6.0 0.00 0.00 0.00 83 1008.6
20170722142813 68 44 1.0 6.0 0.00 0.00 0.00 84 1008.5
20170722142316 68 96 3.0 5.0 0.00 0.00 0.00 85 1008.3
20170722142224 67 107 1.0 5.0 0.00 0.00 0.00 87 1007.6
20170722141826 67 22 2.0 5.0 0.00 0.00 0.00 88 1008.2
20170722141310 66 244 1.0 2.0 0.00 0.00 0.00 89 1008.1
20170722140814 65 244 0.0 2.0 0.00 0.00 0.00 89 1008.2
20170722140631 65 244 0.0 2.0 0.00 0.00 0.00 88 1007.6
20170722140325 65 244 1.0 2.0 0.00 0.00 0.00 88 1008.4
20170722135807 65 244 1.0 2.0 0.00 0.00 0.00 88 1008.4
20170722135309 65 244 0.0 2.0 0.00 0.00 0.00 88 1008.5
20170722135025 64 244 0.0 2.0 0.00 0.00 0.00 89 1007.9
20170722134819 64 244 1.0 2.0 0.00 0.00 0.00 89 1008.6
20170722134305 64 244 1.0 2.0 0.00 0.00 0.00 89 1008.5
20170722133808 64 244 1.0 2.0 0.00 0.00 0.00 88 1008.3
20170722133426 64 244 1.0 2.0 0.00 0.00 0.00 88 1007.7
20170722133311 64 244 1.0 2.0 0.00 0.00 0.00 89 1008.4
20170722132821 64 244 0.0 1.0 0.00 0.00 0.00 89 1008.4
20170722132306 64 244 0.0 3.0 0.00 0.00 0.00 89 1008.4
20170722131830 63 244 0.0 3.0 0.00 0.00 0.00 90 1007.8
20170722131809 63 244 0.0 3.0 0.00 0.00 0.00 90 1008.5
20170722131319 63 244 1.0 5.0 0.00 0.00 0.00 91 1008.5
20170722130824 63 246 3.0 6.0 0.00 0.00 0.00 91 1008.5
20170722130310 63 248 5.0 6.0 0.00 0.00 0.00 90 1008.7
20170722130226 62 250 4.0 6.0 0.00 0.00 0.00 90 1008.1
20170722125820 63 252 3.0 5.0 0.00 0.00 0.00 91 1008.7
20170722125322 63 248 3.0 7.0 0.00 0.00 0.00 91 1008.7
20170722124808 63 244 3.0 7.0 0.00 0.00 0.00 91 1008.7
20170722124635 62 248 4.0 7.0 0.00 0.00 0.00 91 1008.0
20170722124311 63 240 3.0 5.0 0.00 0.00 0.00 91 1008.5
20170722123821 63 238 2.0 4.0 0.00 0.00 0.00 91 1008.6
20170722123327 62 239 3.0 4.0 0.00 0.00 0.00 91 1008.7
20170722123037 62 250 2.0 4.0 0.00 0.00 0.00 92 1008.0
20170722122809 62 256 3.0 4.0 0.00 0.00 0.00 92 1008.6
20170722122319 62 263 2.0 5.0 0.00 0.00 0.00 92 1008.7
20170722121825 62 263 3.0 6.0 0.00 0.00 0.00 92 1008.8
20170722121443 62 258 3.0 6.0 0.00 0.00 0.00 92 1008.1
20170722121309 62 259 4.0 6.0 0.00 0.00 0.00 92 1008.8
20170722120820 62 260 4.0 6.0 0.00 0.00 0.00 93 1008.8
20170722120326 62 246 5.0 8.0 0.00 0.00 0.00 93 1008.8
20170722115905 62 255 6.0 10.0 0.00 0.00 0.00 93 1008.0
20170722115809 62 268 6.0 10.0 0.00 0.00 0.00 93 1008.7
20170722115312 62 260 8.0 10.0 0.00 0.00 0.00 93 1008.8
20170722114822 62 249 8.0 10.0 0.00 0.00 0.00 93 1008.7
20170722114325 63 248 6.0 8.0 0.00 0.00 0.00 93 1008.3
20170722114240 62 262 6.0 7.0 0.00 0.00 0.00 93 1007.7
20170722113809 63 239 4.0 6.0 0.00 0.00 0.00 93 1008.1
20170722112826 63 258 5.0 6.0 0.00 0.00 0.00 94 1008.0
20170722112648 63 257 4.0 6.0 0.00 0.00 0.00 94 1007.2
20170722112310 63 254 4.0 5.0 0.00 0.00 0.00 95 1007.9
20170722111815 63 191 0.0 0.0 0.00 0.00 0.00 95 1007.9
20170722111324 63 190 0.0 0.0 0.00 0.00 0.00 95 1007.8
20170722111053 62 180 0.0 0.0 0.00 0.00 0.00 95 1007.1
20170722110828 63 180 0.0 0.0 0.00 0.00 0.00 95 1007.9
20170722110312 63 179 0.0 0.0 0.00 0.00 0.00 95 1008.0
20170722105823 62 179 0.0 0.0 0.00 0.00 0.00 95 1008.1
20170722105500 62 179 0.0 0.0 0.00 0.00 0.00 95 1007.5
20170722105326 62 179 0.0 0.0 0.00 0.00 0.00 95 1008.2
20170722104836 63 182 0.0 0.0 0.00 0.00 0.00 95 1008.2
20170722104321 63 182 0.0 0.0 0.00 0.00 0.00 95 1008.1
20170722103904 62 182 0.0 0.0 0.00 0.00 0.00 95 1007.4
20170722103825 63 182 0.0 0.0 0.00 0.00 0.00 95 1008.1
20170722103330 63 182 0.0 0.0 0.00 0.00 0.00 95 1008.1
20170722102816 63 182 0.0 0.0 0.00 0.00 0.00 95 1008.2
20170722102327 63 182 0.0 0.0 0.00 0.00 0.00 95 1008.2
20170722102302 62 182 0.0 0.0 0.00 0.00 0.00 95 1007.5
20170722101831 63 173 0.0 0.0 0.00 0.00 0.00 95 1008.1
20170722101316 63 156 0.0 0.0 0.00 0.00 0.00 95 1008.2
20170722100827 63 156 0.0 0.0 0.00 0.00 0.00 95 1008.2
20170722100706 62 156 0.0 0.0 0.00 0.00 0.00 95 1007.6
20170722100316 63 156 0.0 0.0 0.00 0.00 0.00 95 1008.4
20170722095820 63 156 0.0 0.0 0.00 0.00 0.00 95 1008.4
20170722095332 63 172 0.0 0.0 0.00 0.00 0.00 96 1008.6
20170722095112 63 172 0.0 0.0 0.00 0.00 0.00 96 1008.0
20170722094325 63 180 0.0 0.0 0.00 0.00 0.00 95 1008.6
20170722093830 63 184 0.0 0.0 0.00 0.00 0.00 95 1008.8
20170722093527 62 184 0.0 0.0 0.00 0.00 0.00 95 1008.0
20170722093315 63 178 0.0 0.0 0.00 0.00 0.00 95 1008.5
20170722092824 63 179 0.0 0.0 0.00 0.00 0.00 95 1008.4
20170722092329 63 179 0.0 0.0 0.00 0.00 0.00 96 1008.5
20170722091935 62 178 0.0 0.0 0.00 0.00 0.00 96 1007.7
20170722091813 63 179 0.0 0.0 0.00 0.00 0.00 95 1008.4
20170722091325 63 178 0.0 0.0 0.00 0.00 0.00 95 1008.3
20170722090828 63 178 0.0 0.0 0.00 0.00 0.00 95 1008.3
20170722090342 62 179 0.0 0.0 0.00 0.00 0.00 95 1007.6
20170722090314 63 179 0.0 0.0 0.00 0.00 0.00 95 1008.2
20170722085825 63 179 0.0 0.0 0.00 0.00 0.00 95 1008.1
20170722085330 63 178 0.0 0.0 0.00 0.00 0.00 95 1008.1
20170722084813 63 178 0.0 0.0 0.00 0.00 0.00 95 1007.9
20170722084733 63 179 0.0 0.0 0.00 0.00 0.00 95 1007.1
20170722084324 63 179 0.0 0.0 0.00 0.00 0.00 95 1007.9
20170722083828 63 178 0.0 0.0 0.00 0.00 0.00 95 1008.1
20170722083314 63 178 0.0 0.0 0.00 0.00 0.00 95 1008.2
20170722083145 63 179 0.0 0.0 0.00 0.00 0.00 95 1007.5
20170722082816 63 179 0.0 0.0 0.00 0.00 0.00 95 1008.2
20170722082329 63 178 0.0 0.0 0.00 0.00 0.00 94 1008.0
20170722081829 63 179 0.0 0.0 0.00 0.00 0.00 94 1007.9
20170722081544 63 178 0.0 0.0 0.00 0.00 0.00 94 1006.9
20170722081312 63 179 0.0 0.0 0.00 0.00 0.00 94 1007.7
20170722080823 63 178 0.0 0.0 0.00 0.00 0.00 94 1007.9
20170722080328 64 179 0.0 0.0 0.00 0.00 0.00 94 1008.2
20170722075850 63 178 0.0 0.0 0.00 0.00 0.00 94 1007.5
20170722075818 64 179 0.0 0.0 0.00 0.00 0.00 94 1008.1
20170722075330 64 178 0.0 0.0 0.00 0.00 0.00 94 1008.0
20170722074813 64 179 0.0 0.0 0.00 0.00 0.00 93 1008.0
20170722074322 64 179 0.0 2.0 0.00 0.00 0.00 93 1008.0
20170722074150 64 179 0.0 2.0 0.00 0.00 0.00 93 1007.3
20170722073828 64 178 0.0 2.0 0.00 0.00 0.00 93 1008.2
20170722073312 65 179 0.0 1.0 0.00 0.00 0.00 93 1008.4
20170722072822 65 179 0.0 1.0 0.00 0.00 0.00 93 1008.3
20170722072552 64 179 0.0 1.0 0.00 0.00 0.00 93 1007.6
20170722072324 65 179 0.0 2.0 0.00 0.00 0.00 93 1008.3
20170722071835 65 179 0.0 3.0 0.00 0.00 0.00 93 1008.4
20170722071320 65 178 2.0 3.0 0.00 0.00 0.00 94 1008.4
20170722070958 64 83 0.0 0.0 0.00 0.00 0.00 93 1007.7
20170722070823 65 83 0.0 0.0 0.00 0.00 0.00 93 1008.3
20170722070314 64 83 0.0 0.0 0.00 0.00 0.00 93 1008.2
20170722065823 64 83 0.0 0.0 0.00 0.00 0.00 93 1008.1
20170722065318 64 83 0.0 0.0 0.00 0.00 0.00 93 1008.2
20170722065252 64 83 0.0 0.0 0.00 0.00 0.00 93 1007.5